Friday Harbor, WA
on Tuesday, December 25, 2012

Tuesday
Previous Day Next Day
Daily Summary
 ActualAverageRecord
Temperature
Mean Temperature °F / °C °F / °C  
Max Temperature 43°F / 6°C 43°F / 6°C 55°F / 12°C (2005)
Min Temperature 39°F / 4°C 34°F / 1°C 30°F / -1°C (1997)
Degree Days
Heating Degree Days 24    
Moisture
Dew Point 35°F / 2°C   
Average Humidity 78    
Maximum Humidity 93    
Minimum Humidity 65    
Precipitation
Precipitation 0.11 in / 2.79 cm in / cm in / cm ()
Wind
Wind Speed 12 mph / 19 km/h   
Max Wind Speed 22 mph / 35 km/h   
Max Gust Speed 31 mph / 50 km/h   
Visibility 10 miles / 15 kilometers   
Events Rain   
Averages and records for this station are not official NWS values.
Key: T is trace of precipitation, MM is missing value
Source: NWS Daily Summary
Seasonal Weather Averages
Time(PST)TemperatureDew PointHumidity Pressure Visibility Wind DirectionWind SpeedGust SpeedPrecipitationEvents Conditions
12:53 AM 42.1°F / 5.6°C 35.1°F / 1.7°C 76% 30.01 in / 1016.1 hPa 10.0 miles / 16.1 kilometers ENE 10.4 mph / 16.7 km/h - N/A   Scattered Clouds
1:53 AM 41.0°F / 5.0°C 34.0°F / 1.1°C 76% 29.99 in / 1015.3 hPa 10.0 miles / 16.1 kilometers ENE 6.9 mph / 11.1 km/h - N/A   Mostly Cloudy
2:53 AM 41.0°F / 5.0°C 34.0°F / 1.1°C 76% 29.94 in / 1013.9 hPa 10.0 miles / 16.1 kilometers ENE 9.2 mph / 14.8 km/h - N/A   Mostly Cloudy
3:53 AM 41.0°F / 5.0°C 33.1°F / 0.6°C 73% 29.90 in / 1012.3 hPa 10.0 miles / 16.1 kilometers ENE 8.1 mph / 13.0 km/h - N/A   Overcast
4:53 AM 39.9°F / 4.4°C 32.0°F / 0.0°C 73% 29.85 in / 1010.8 hPa 10.0 miles / 16.1 kilometers ENE 11.5 mph / 18.5 km/h - N/A   Overcast
5:53 AM 41.0°F / 5.0°C 30.9°F / -0.6°C 67% 29.82 in / 1009.7 hPa 10.0 miles / 16.1 kilometers ENE 6.9 mph / 11.1 km/h 16.1 mph / 25.9 km/h N/A   Overcast
6:53 AM 41.0°F / 5.0°C 30.9°F / -0.6°C 67% 29.79 in / 1008.7 hPa 10.0 miles / 16.1 kilometers East 8.1 mph / 13.0 km/h - N/A   Overcast
7:53 AM 42.1°F / 5.6°C 30.9°F / -0.6°C 65% 29.76 in / 1007.7 hPa 10.0 miles / 16.1 kilometers East 12.7 mph / 20.4 km/h 18.4 mph / 29.6 km/h N/A   Overcast
8:53 AM 41.0°F / 5.0°C 35.1°F / 1.7°C 79% 29.74 in / 1007.0 hPa 7.0 miles / 11.3 kilometers East 19.6 mph / 31.5 km/h 31.1 mph / 50.0 km/h 0.00 in / 0.0 cm Rain Light Rain
9:53 AM 39.9°F / 4.4°C 35.1°F / 1.7°C 83% 29.72 in / 1006.2 hPa 8.0 miles / 12.9 kilometers East 16.1 mph / 25.9 km/h 24.2 mph / 38.9 km/h 0.00 in / 0.0 cm Rain Light Rain
10:53 AM 39.9°F / 4.4°C 35.1°F / 1.7°C 83% 29.70 in / 1005.5 hPa 4.0 miles / 6.4 kilometers ESE 21.9 mph / 35.2 km/h 27.6 mph / 44.4 km/h 0.04 in / 1.0 cm Rain Light Rain
11:53 AM 39.0°F / 3.9°C 36.0°F / 2.2°C 89% 29.67 in / 1004.6 hPa 8.0 miles / 12.9 kilometers East 16.1 mph / 25.9 km/h 23.0 mph / 37.0 km/h 0.06 in / 1.5 cm Rain Light Rain
12:53 PM 39.0°F / 3.9°C 36.0°F / 2.2°C 89% 29.66 in / 1004.4 hPa 9.0 miles / 14.5 kilometers East 16.1 mph / 25.9 km/h 24.2 mph / 38.9 km/h 0.01 in / 0.3 cm Rain Light Rain
1:41 PM 39.2°F / 4.0°C 37.4°F / 3.0°C 93% 29.66 in / 1004.3 hPa 10.0 miles / 16.1 kilometers East 17.3 mph / 27.8 km/h 31.1 mph / 50.0 km/h 0.00 in / 0.0 cm Rain Light Rain
1:53 PM 39.9°F / 4.4°C 37.0°F / 2.8°C 89% 29.66 in / 1004.3 hPa 10.0 miles / 16.1 kilometers East 17.3 mph / 27.8 km/h 25.3 mph / 40.7 km/h 0.00 in / 0.0 cm   Overcast
2:39 PM 41.0°F / 5.0°C 37.4°F / 3.0°C 87% 29.66 in / 1004.3 hPa 10.0 miles / 16.1 kilometers ESE 17.3 mph / 27.8 km/h 25.3 mph / 40.7 km/h N/A   Overcast
2:53 PM 41.0°F / 5.0°C 37.0°F / 2.8°C 86% 29.67 in / 1004.5 hPa 10.0 miles / 16.1 kilometers East 17.3 mph / 27.8 km/h 24.2 mph / 38.9 km/h N/A   Overcast
3:03 PM 41.0°F / 5.0°C 37.4°F / 3.0°C 87% 29.66 in / 1004.3 hPa 10.0 miles / 16.1 kilometers East 19.6 mph / 31.5 km/h 25.3 mph / 40.7 km/h N/A   Overcast
3:53 PM 42.1°F / 5.6°C 37.0°F / 2.8°C 82% 29.65 in / 1004.1 hPa 10.0 miles / 16.1 kilometers East 16.1 mph / 25.9 km/h 20.7 mph / 33.3 km/h N/A   Overcast
4:53 PM 41.0°F / 5.0°C 36.0°F / 2.2°C 82% 29.65 in / 1004.1 hPa 10.0 miles / 16.1 kilometers East 12.7 mph / 20.4 km/h 19.6 mph / 31.5 km/h N/A   Overcast
5:53 PM 42.1°F / 5.6°C 36.0°F / 2.2°C 79% 29.65 in / 1004.0 hPa 10.0 miles / 16.1 kilometers East 11.5 mph / 18.5 km/h - N/A   Overcast
6:08 PM 42.8°F / 6.0°C 35.6°F / 2.0°C 76% 29.65 in / 1003.9 hPa 10.0 miles / 16.1 kilometers ENE 5.8 mph / 9.3 km/h - N/A   Overcast
6:53 PM 41.0°F / 5.0°C 36.0°F / 2.2°C 82% 29.65 in / 1004.1 hPa 10.0 miles / 16.1 kilometers East 5.8 mph / 9.3 km/h - N/A   Overcast
7:53 PM 42.1°F / 5.6°C 35.1°F / 1.7°C 76% 29.64 in / 1003.7 hPa 10.0 miles / 16.1 kilometers ENE 9.2 mph / 14.8 km/h - N/A   Overcast
8:53 PM 43.0°F / 6.1°C 34.0°F / 1.1°C 71% 29.65 in / 1003.8 hPa 10.0 miles / 16.1 kilometers East 15.0 mph / 24.1 km/h - N/A   Overcast
9:53 PM 43.0°F / 6.1°C 33.1°F / 0.6°C 68% 29.66 in / 1004.2 hPa 10.0 miles / 16.1 kilometers East 11.5 mph / 18.5 km/h - N/A   Overcast
10:53 PM 42.1°F / 5.6°C 33.1°F / 0.6°C 70% 29.68 in / 1004.9 hPa 10.0 miles / 16.1 kilometers ESE 6.9 mph / 11.1 km/h - N/A   Overcast
11:53 PM 43.0°F / 6.1°C 34.0°F / 1.1°C 71% 29.68 in / 1004.9 hPa 10.0 miles / 16.1 kilometers East 12.7 mph / 20.4 km/h - N/A   Overcast
Moon Phase
Dec. 25 Dec. 28 Jan. 04 Jan. 11 Jan. 18
Sunrise:08:03 AM (PST) Moon Rise:02:37 PM (PST)12/25
Sunset:04:21 PM (PST) Moon Set:05:36 AM (PST)12/25

Copyright © 2014 The Weather Underground, Inc.